EW9427 Weather Reports


Display with metric or nautical units.
time (UTC)temp
F
wind
direction
speed
MPH
gust
MPH
rain 1hr
in
rain 24hr
in
rain mn
in
humidity
%
barometer
mb
20260504234505 55 9 17.0 28.0 0.00 0.00 0.00 25 1015.5
20260504233005 55 5 13.0 22.0 0.00 0.00 0.00 26 1015.5
20260504231504 55 300 13.0 27.0 0.00 0.00 0.00 26 1015.5
20260504230002 55 333 18.0 26.0 0.00 0.00 0.00 26 1015.6
20260504224508 55 296 17.0 29.0 0.00 0.00 0.00 26 1015.5
20260504223114 54 321 19.0 25.0 0.00 0.00 0.00 27 1015.5
20260504221600 55 337 16.0 29.0 0.00 0.00 0.00 29 1015.5
20260504220101 54 329 15.0 26.0 0.00 0.00 0.00 29 1015.6
20260504214558 55 325 16.0 27.0 0.00 0.00 0.00 31 1015.7
20260504213102 55 11 13.0 28.0 0.00 0.00 0.00 31 1015.7
20260504211600 52 319 16.0 24.0 0.00 0.00 0.00 32 1015.9
20260504204555 55 325 17.0 27.0 0.00 0.00 0.00 33 1016.0
20260504203052 54 325 14.0 26.0 0.00 0.00 0.00 35 1015.9
20260504201552 55 309 15.0 29.0 0.00 0.00 0.00 34 1015.8
20260504200059 53 335 16.0 25.0 0.00 0.00 0.00 34 1015.7
20260504194546 54 317 11.0 20.0 0.00 0.00 0.00 35 1015.8
20260504193045 52 19 12.0 25.0 0.00 0.00 0.00 36 1015.9
20260504191552 51 335 15.0 25.0 0.00 0.00 0.00 37 1016.0
20260504190042 51 317 12.0 21.0 0.00 0.00 0.00 38 1016.0
20260504184542 51 317 10.0 21.0 0.00 0.00 0.00 39 1015.9
20260504183041 52 346 12.0 21.0 0.00 0.00 0.00 38 1016.0
20260504181540 52 304 11.0 19.0 0.00 0.00 0.00 40 1016.0
20260504180039 52 345 10.0 20.0 0.00 0.00 0.00 40 1016.1
20260504174538 53 338 12.0 19.0 0.00 0.00 0.00 39 1016.2
20260504173036 52 330 11.0 18.0 0.00 0.00 0.00 41 1016.2
20260504171535 52 317 10.0 18.0 0.00 0.00 0.00 42 1016.2
20260504120124 45 298 10.0 15.0 0.00 0.00 0.00 59 1016.0
20260504081530 47 17 13.0 24.0 0.00 0.00 0.00 57 1015.8
20260504044554 56 355 16.0 23.0 0.00 0.00 0.00 40 1011.4
20260504043112 57 13 13.0 20.0 0.00 0.00 0.00 39 1010.7
20260504041554 57 5 12.0 16.0 0.00 0.00 0.00 38 1010.4
20260504040053 57 11 11.0 15.0 0.00 0.00 0.00 38 1010.1
20260504034554 58 360 10.0 15.0 0.00 0.00 0.00 38 1009.8
20260504033103 59 5 11.0 16.0 0.00 0.00 0.00 37 1009.5
20260504031556 59 19 10.0 16.0 0.00 0.00 0.00 37 1009.3
20260504024552 62 15 11.0 21.0 0.00 0.00 0.00 33 1008.8
20260504023050 64 16 13.0 20.0 0.00 0.00 0.00 30 1008.6
20260504021552 66 14 14.0 18.0 0.00 0.00 0.00 26 1008.6
20260504020054 67 360 6.0 10.0 0.00 0.00 0.00 24 1008.5
20260504014547 69 348 10.0 14.0 0.00 0.00 0.00 23 1008.6
20260504013051 70 360 9.0 14.0 0.00 0.00 0.00 23 1008.6
20260504011541 71 345 8.0 18.0 0.00 0.00 0.00 23 1008.6
20260504010051 72 360 10.0 18.0 0.00 0.00 0.00 22 1008.7
20260504004544 72 338 11.0 17.0 0.00 0.00 0.00 22 1008.8
20260504003036 72 340 14.0 20.0 0.00 0.00 0.00 22 1008.9
20260504001538 73 341 11.0 20.0 0.00 0.00 0.00 22 1009.0
20260504000033 73 333 10.0 21.0 0.00 0.00 0.00 21 1009.1